TimeCST,TemperatureF,Dew PointF,Humidity,Sea Level PressureIn,VisibilityMPH,Wind Direction,Wind SpeedMPH,Gust SpeedMPH,PrecipitationIn,Events,Conditions,WindDirDegrees,DateUTC
12:15 AM,30.2,23.5,76,30.23,10.0,NNE,9.2,-,N/A,,Overcast,20,2013-03-01 06:15:00
12:35 AM,29.8,23.4,77,30.23,10.0,NNE,9.2,-,N/A,,Overcast,20,2013-03-01 06:35:00
1:15 AM,29.7,23.0,76,30.24,10.0,North,9.2,-,N/A,,Overcast,350,2013-03-01 07:15:00
1:35 AM,29.3,22.6,76,30.24,10.0,North,11.5,-,N/A,,Overcast,360,2013-03-01 07:35:00
2:15 AM,29.3,22.3,75,30.24,10.0,NNW,10.4,-,N/A,,Overcast,340,2013-03-01 08:15:00
2:35 AM,29.3,22.5,76,30.24,10.0,North,10.4,-,N/A,,Overcast,350,2013-03-01 08:35:00
2:55 AM,29.3,22.1,75,30.23,10.0,North,9.2,-,N/A,,Overcast,360,2013-03-01 08:55:00
3:35 AM,29.3,22.3,75,30.23,10.0,NNW,11.5,-,N/A,,Overcast,340,2013-03-01 09:35:00
3:55 AM,29.3,21.4,72,30.23,10.0,NNW,13.8,18.4,N/A,,Overcast,340,2013-03-01 09:55:00
4:15 AM,29.3,21.7,73,30.23,10.0,North,9.2,-,N/A,,Overcast,350,2013-03-01 10:15:00
4:35 AM,29.1,21.7,74,30.23,10.0,North,10.4,17.3,N/A,,Overcast,360,2013-03-01 10:35:00
4:55 AM,29.1,21.4,73,30.23,10.0,North,10.4,-,N/A,,Overcast,360,2013-03-01 10:55:00
5:15 AM,29.1,21.2,72,30.24,10.0,North,8.1,-,N/A,,Overcast,360,2013-03-01 11:15:00
5:35 AM,29.1,20.8,71,30.24,10.0,North,9.2,-,N/A,,Overcast,350,2013-03-01 11:35:00
5:55 AM,29.1,19.8,68,30.24,10.0,NNW,13.8,-,N/A,,Overcast,340,2013-03-01 11:55:00
6:15 AM,28.9,20.3,70,30.24,10.0,North,9.2,16.1,N/A,,Overcast,350,2013-03-01 12:15:00
6:35 AM,28.8,21.2,73,30.24,10.0,North,8.1,-,N/A,,Overcast,360,2013-03-01 12:35:00
7:15 AM,28.2,21.7,77,30.26,10.0,North,8.1,-,N/A,,Overcast,350,2013-03-01 13:15:00
7:35 AM,28.2,21.9,77,30.27,10.0,North,8.1,-,N/A,,Overcast,360,2013-03-01 13:35:00
8:15 AM,28.2,21.6,76,30.27,10.0,North,8.1,-,N/A,,Overcast,350,2013-03-01 14:15:00
8:35 AM,28.4,21.0,74,30.28,10.0,North,10.4,-,N/A,,Overcast,360,2013-03-01 14:35:00
9:15 AM,29.1,20.3,70,30.28,10.0,North,11.5,18.4,N/A,,Overcast,360,2013-03-01 15:15:00
9:35 AM,28.8,20.3,71,30.28,10.0,NNE,13.8,18.4,N/A,,Overcast,20,2013-03-01 15:35:00
9:55 AM,28.9,18.1,64,30.29,10.0,NNE,16.1,25.3,N/A,,Overcast,20,2013-03-01 15:55:00
10:15 AM,28.8,19.0,67,30.29,10.0,North,13.8,23.0,N/A,,Overcast,10,2013-03-01 16:15:00
10:35 AM,28.6,17.6,64,30.30,10.0,North,13.8,21.9,N/A,,Overcast,10,2013-03-01 16:35:00
10:55 AM,28.8,17.6,63,30.30,10.0,NNE,18.4,23.0,N/A,,Overcast,20,2013-03-01 16:55:00
11:15 AM,28.4,17.4,63,30.30,10.0,North,12.7,-,N/A,,Overcast,350,2013-03-01 17:15:00
11:35 AM,28.4,17.8,64,30.30,10.0,NNE,13.8,-,N/A,,Overcast,20,2013-03-01 17:35:00
12:15 PM,29.1,17.1,61,30.31,10.0,North,11.5,-,N/A,,Overcast,360,2013-03-01 18:15:00
12:35 PM,29.3,17.2,61,30.30,10.0,North,13.8,21.9,N/A,,Overcast,10,2013-03-01 18:35:00
12:55 PM,29.7,16.9,59,30.30,10.0,North,15.0,20.7,N/A,,Overcast,350,2013-03-01 18:55:00
1:15 PM,30.0,17.8,60,30.29,10.0,North,13.8,18.4,N/A,,Overcast,360,2013-03-01 19:15:00
1:35 PM,30.4,18.1,60,30.29,10.0,North,11.5,-,N/A,,Overcast,10,2013-03-01 19:35:00
1:55 PM,30.4,17.2,58,30.28,10.0,North,12.7,18.4,N/A,,Overcast,360,2013-03-01 19:55:00
2:15 PM,31.1,18.5,60,30.28,10.0,NNE,12.7,17.3,N/A,,Overcast,20,2013-03-01 20:15:00
2:35 PM,31.1,18.0,58,30.28,10.0,NNE,11.5,19.6,N/A,,Overcast,20,2013-03-01 20:35:00
2:55 PM,30.9,18.0,59,30.29,10.0,North,13.8,18.4,N/A,,Mostly Cloudy,350,2013-03-01 20:55:00
3:15 PM,31.6,18.3,58,30.28,10.0,North,11.5,-,N/A,,Mostly Cloudy,360,2013-03-01 21:15:00
3:35 PM,31.8,18.5,58,30.29,10.0,NNW,11.5,16.1,N/A,,Overcast,340,2013-03-01 21:35:00
3:55 PM,32.0,18.7,58,30.29,10.0,North,15.0,-,N/A,,Overcast,360,2013-03-01 21:55:00
4:15 PM,32.0,19.2,59,30.29,10.0,NNW,10.4,-,N/A,,Overcast,340,2013-03-01 22:15:00
4:35 PM,31.6,19.0,60,30.29,10.0,NNW,10.4,-,N/A,,Mostly Cloudy,340,2013-03-01 22:35:00
4:55 PM,32.0,18.7,58,30.29,10.0,North,12.7,19.6,N/A,,Mostly Cloudy,360,2013-03-01 22:55:00
5:15 PM,32.0,19.0,59,30.30,10.0,North,15.0,18.4,N/A,,Scattered Clouds,360,2013-03-01 23:15:00
5:35 PM,31.8,18.7,58,30.31,10.0,North,11.5,-,N/A,,Scattered Clouds,350,2013-03-01 23:35:00
5:55 PM,31.1,18.9,61,30.32,10.0,North,10.4,-,N/A,,Scattered Clouds,350,2013-03-01 23:55:00
6:15 PM,30.2,19.2,64,30.32,10.0,North,10.4,-,N/A,,Clear,350,2013-03-02 00:15:00
6:35 PM,29.3,19.2,66,30.32,10.0,North,6.9,-,N/A,,Clear,350,2013-03-02 00:35:00
6:55 PM,28.9,19.0,67,30.32,10.0,NNW,5.8,-,N/A,,Clear,340,2013-03-02 00:55:00
7:15 PM,28.2,19.2,69,30.33,10.0,NNW,5.8,-,N/A,,Clear,340,2013-03-02 01:15:00
7:35 PM,27.5,19.2,71,30.33,10.0,North,5.8,-,N/A,,Clear,350,2013-03-02 01:35:00
8:15 PM,26.4,18.9,73,30.33,10.0,NNW,5.8,-,N/A,,Clear,340,2013-03-02 02:15:00
8:35 PM,25.9,18.5,74,30.33,10.0,NNW,6.9,-,N/A,,Clear,340,2013-03-02 02:35:00
8:55 PM,25.3,18.3,75,30.34,10.0,NNW,5.8,-,N/A,,Clear,340,2013-03-02 02:55:00
9:15 PM,24.6,18.1,76,30.34,10.0,North,4.6,-,N/A,,Clear,350,2013-03-02 03:15:00
9:35 PM,25.0,18.1,75,30.34,10.0,North,3.5,-,N/A,,Clear,360,2013-03-02 03:35:00
9:55 PM,24.3,18.1,77,30.34,10.0,North,4.6,-,N/A,,Clear,350,2013-03-02 03:55:00
10:15 PM,24.3,18.3,78,30.35,10.0,North,5.8,-,N/A,,Clear,10,2013-03-02 04:15:00
10:35 PM,23.7,18.1,79,30.35,10.0,North,4.6,-,N/A,,Clear,10,2013-03-02 04:35:00
10:55 PM,23.9,18.1,79,30.35,10.0,North,4.6,-,N/A,,Clear,10,2013-03-02 04:55:00
11:15 PM,23.5,18.1,80,30.35,10.0,North,3.5,-,N/A,,Clear,10,2013-03-02 05:15:00
11:35 PM,19.8,15.8,85,30.35,10.0,Calm,Calm,-,N/A,,Clear,0,2013-03-02 05:35:00
11:55 PM,19.8,15.6,84,30.35,10.0,Calm,Calm,-,N/A,,Clear,0,2013-03-02 05:55:00